Time,TemperatureF,DewpointF,PressureIn,WindDirection,WindDirectionDegrees,WindSpeedMPH,WindSpeedGustMPH,Humidity,HourlyPrecipIn,Conditions,Clouds,dailyrainin,SoftwareType,DateUTC
2013-01-17 00:02:00,17.0,9.0,-100.00,NW,316,12.0,14.0,71,0.00,,,-99.99,,2013-01-17 07:02:00,
2013-01-17 00:12:00,17.0,9.0,-100.00,NW,312,14.0,16.0,71,0.00,,,-99.99,,2013-01-17 07:12:00,
2013-01-17 00:22:00,17.0,9.0,-100.00,NW,309,15.0,17.0,70,0.00,,,-99.99,,2013-01-17 07:22:00,
2013-01-17 00:32:00,19.0,10.0,-100.00,WNW,302,16.0,18.0,67,0.00,,,-99.99,,2013-01-17 07:32:00,
2013-01-17 00:42:00,18.0,10.0,-100.00,WNW,301,13.0,15.0,68,0.00,,,-99.99,,2013-01-17 07:42:00,
2013-01-17 00:52:00,19.0,10.0,-100.00,WNW,296,14.0,17.0,66,0.00,,,-99.99,,2013-01-17 07:52:00,
2013-01-17 01:02:00,20.0,10.0,-100.00,NW,304,17.0,19.0,66,0.00,,,-99.99,,2013-01-17 08:02:00,
2013-01-17 01:12:00,20.0,10.0,-100.00,NW,304,16.0,18.0,65,0.00,,,-99.99,,2013-01-17 08:12:00,
2013-01-17 01:22:00,18.0,9.0,-100.00,NW,306,16.0,17.0,67,0.00,,,-99.99,,2013-01-17 08:22:00,
2013-01-17 01:32:00,18.0,9.0,-100.00,NW,305,14.0,16.0,69,0.00,,,-99.99,,2013-01-17 08:32:00,
2013-01-17 01:43:00,17.0,9.0,-100.00,NW,309,14.0,18.0,69,0.00,,,-99.99,,2013-01-17 08:43:00,
2013-01-17 01:52:00,18.0,9.0,-100.00,NW,309,15.0,17.0,66,0.00,,,-99.99,,2013-01-17 08:52:00,
2013-01-17 02:02:00,18.0,9.0,-100.00,NW,305,14.0,17.0,65,0.00,,,-99.99,,2013-01-17 09:02:00,
2013-01-17 02:12:00,19.0,9.0,-100.00,NW,304,14.0,16.0,64,0.00,,,-99.99,,2013-01-17 09:12:00,
2013-01-17 02:22:00,20.0,9.0,-100.00,NW,308,15.0,17.0,62,0.00,,,-99.99,,2013-01-17 09:22:00,
2013-01-17 02:32:00,20.0,9.0,-100.00,NW,308,14.0,17.0,62,0.00,,,-99.99,,2013-01-17 09:32:00,
2013-01-17 02:42:00,20.0,9.0,-100.00,NW,305,17.0,19.0,60,0.00,,,-99.99,,2013-01-17 09:42:00,
2013-01-17 02:52:00,21.0,9.0,-100.00,NW,305,17.0,21.0,59,0.00,,,-99.99,,2013-01-17 09:52:00,
2013-01-17 03:02:00,22.0,9.0,-100.00,WNW,302,14.0,16.0,57,0.00,,,-99.99,,2013-01-17 10:02:00,
2013-01-17 03:12:00,21.0,9.0,-100.00,WNW,302,13.0,16.0,58,0.00,,,-99.99,,2013-01-17 10:12:00,
2013-01-17 03:22:00,22.0,9.0,-100.00,WNW,302,15.0,17.0,57,0.00,,,-99.99,,2013-01-17 10:22:00,
2013-01-17 03:32:00,21.0,9.0,-100.00,WNW,301,11.0,15.0,59,0.00,,,-99.99,,2013-01-17 10:32:00,
2013-01-17 03:42:00,21.0,9.0,-100.00,NW,306,14.0,15.0,59,0.00,,,-99.99,,2013-01-17 10:42:00,
2013-01-17 03:52:00,21.0,9.0,-100.00,NW,308,16.0,18.0,59,0.00,,,-99.99,,2013-01-17 10:52:00,
2013-01-17 04:02:00,21.0,9.0,-100.00,NW,309,14.0,16.0,59,0.00,,,-99.99,,2013-01-17 11:02:00,
2013-01-17 04:12:00,20.0,9.0,-100.00,NW,309,13.0,15.0,61,0.00,,,-99.99,,2013-01-17 11:12:00,
2013-01-17 04:22:00,20.0,9.0,-100.00,NW,309,13.0,15.0,61,0.00,,,-99.99,,2013-01-17 11:22:00,
2013-01-17 04:33:00,20.0,9.0,-100.00,NW,308,15.0,17.0,61,0.00,,,-99.99,,2013-01-17 11:33:00,
2013-01-17 04:42:00,22.0,9.0,-100.00,NW,309,16.0,17.0,58,0.00,,,-99.99,,2013-01-17 11:42:00,
2013-01-17 04:52:00,22.0,9.0,-100.00,NW,311,16.0,18.0,58,0.00,,,-99.99,,2013-01-17 11:52:00,
2013-01-17 05:02:00,22.0,9.0,-100.00,NW,312,15.0,16.0,59,0.00,,,-99.99,,2013-01-17 12:02:00,
2013-01-17 05:12:00,22.0,9.0,-100.00,NW,309,14.0,17.0,57,0.00,,,-99.99,,2013-01-17 12:12:00,
2013-01-17 05:22:00,23.0,9.0,-100.00,NW,311,12.0,14.0,55,0.00,,,-99.99,,2013-01-17 12:22:00,
2013-01-17 05:32:00,17.0,7.0,-100.00,West,264,7.0,9.0,65,0.00,,,-99.99,,2013-01-17 12:32:00,
2013-01-17 05:42:00,20.0,9.0,-100.00,WNW,299,9.0,11.0,64,0.00,,,-99.99,,2013-01-17 12:42:00,
2013-01-17 05:52:00,22.0,9.0,-100.00,NW,304,11.0,14.0,58,0.00,,,-99.99,,2013-01-17 12:52:00,
2013-01-17 06:03:00,19.0,8.0,-100.00,WNW,292,10.0,13.0,62,0.00,,,-99.99,,2013-01-17 13:03:00,
2013-01-17 06:12:00,18.0,8.0,-100.00,WNW,294,10.0,12.0,65,0.00,,,-99.99,,2013-01-17 13:12:00,
2013-01-17 06:22:00,20.0,9.0,-100.00,NW,304,13.0,15.0,62,0.00,,,-99.99,,2013-01-17 13:22:00,
2013-01-17 06:33:00,20.0,9.0,-100.00,NW,308,12.0,16.0,61,0.00,,,-99.99,,2013-01-17 13:33:00,
2013-01-17 06:42:00,20.0,8.0,-100.00,WNW,302,13.0,15.0,61,0.00,,,-99.99,,2013-01-17 13:42:00,
2013-01-17 06:52:00,21.0,9.0,-100.00,NW,308,14.0,16.0,59,0.00,,,-99.99,,2013-01-17 13:52:00,
2013-01-17 07:03:00,20.0,8.0,-100.00,NW,309,12.0,16.0,60,0.00,,,-99.99,,2013-01-17 14:03:00,
2013-01-17 07:12:00,20.0,8.0,-100.00,NW,308,13.0,15.0,59,0.00,,,-99.99,,2013-01-17 14:12:00,
2013-01-17 07:23:00,18.0,8.0,-100.00,West,281,7.0,9.0,64,0.00,,,-99.99,,2013-01-17 14:23:00,
2013-01-17 07:33:00,19.0,8.0,-100.00,West,278,9.0,10.0,62,0.00,,,-99.99,,2013-01-17 14:33:00,
2013-01-17 07:42:00,20.0,8.0,-100.00,WNW,294,8.0,10.0,60,0.00,,,-99.99,,2013-01-17 14:42:00,
2013-01-17 07:53:00,19.0,8.0,-100.00,WNW,299,7.0,11.0,63,0.00,,,-99.99,,2013-01-17 14:53:00,
2013-01-17 08:03:00,20.0,8.0,-100.00,West,280,6.0,9.0,58,0.00,,,-99.99,,2013-01-17 15:03:00,
2013-01-17 08:12:00,20.0,8.0,-100.00,WNW,285,6.0,7.0,60,0.00,,,-99.99,,2013-01-17 15:12:00,
2013-01-17 08:22:00,23.0,9.0,-100.00,WNW,287,7.0,8.0,54,0.00,,,-99.99,,2013-01-17 15:22:00,
2013-01-17 08:33:00,24.0,10.0,-100.00,WNW,302,6.0,8.0,54,0.00,,,-99.99,,2013-01-17 15:33:00,
2013-01-17 08:43:00,26.0,10.0,-100.00,NW,312,7.0,10.0,50,0.00,,,-99.99,,2013-01-17 15:43:00,
2013-01-17 08:52:00,25.0,10.0,-100.00,WNW,289,6.0,7.0,53,0.00,,,-99.99,,2013-01-17 15:52:00,
2013-01-17 09:02:00,26.0,10.0,-100.00,WNW,299,5.0,7.0,51,0.00,,,-99.99,,2013-01-17 16:02:00,
2013-01-17 09:12:00,27.0,11.0,-100.00,NW,304,4.0,6.0,50,0.00,,,-99.99,,2013-01-17 16:12:00,
2013-01-17 09:22:00,29.0,11.0,-100.00,WNW,295,5.0,6.0,47,0.00,,,-99.99,,2013-01-17 16:22:00,
2013-01-17 09:33:00,31.0,11.0,-100.00,WNW,287,5.0,7.0,43,0.00,,,-99.99,,2013-01-17 16:33:00,
2013-01-17 09:43:00,32.0,12.0,-100.00,West,280,7.0,9.0,43,0.00,,,-99.99,,2013-01-17 16:43:00,
2013-01-17 09:52:00,33.0,11.0,-100.00,West,280,8.0,10.0,39,0.00,,,-99.99,,2013-01-17 16:52:00,
2013-01-17 10:03:00,34.0,11.0,-100.00,WNW,291,6.0,8.0,39,0.00,,,-99.99,,2013-01-17 17:03:00,
2013-01-17 10:12:00,34.0,11.0,-100.00,West,278,7.0,9.0,38,0.00,,,-99.99,,2013-01-17 17:12:00,
2013-01-17 10:22:00,33.0,13.0,-100.00,West,274,11.0,13.0,43,0.00,,,-99.99,,2013-01-17 17:22:00,
2013-01-17 10:33:00,33.0,11.0,-100.00,West,281,11.0,13.0,39,0.00,,,-99.99,,2013-01-17 17:33:00,
2013-01-17 10:43:00,34.0,13.0,-100.00,West,277,9.0,12.0,41,0.00,,,-99.99,,2013-01-17 17:43:00,
2013-01-17 10:53:00,34.0,13.0,-100.00,West,280,11.0,13.0,42,0.00,,,-99.99,,2013-01-17 17:53:00,
2013-01-17 11:03:00,35.0,11.0,-100.00,WNW,294,11.0,13.0,36,0.00,,,-99.99,,2013-01-17 18:03:00,
2013-01-17 11:12:00,35.0,10.0,-100.00,WNW,295,12.0,15.0,34,0.00,,,-99.99,,2013-01-17 18:12:00,
2013-01-17 11:22:00,35.0,13.0,-100.00,WNW,287,9.0,11.0,40,0.00,,,-99.99,,2013-01-17 18:22:00,
2013-01-17 11:33:00,35.0,13.0,-100.00,West,274,8.0,11.0,39,0.00,,,-99.99,,2013-01-17 18:33:00,
2013-01-17 11:43:00,35.0,11.0,-100.00,WNW,295,8.0,11.0,35,0.00,,,-99.99,,2013-01-17 18:43:00,
2013-01-17 11:53:00,36.0,14.0,-100.00,WNW,285,7.0,10.0,40,0.00,,,-99.99,,2013-01-17 18:53:00,
2013-01-17 12:03:00,36.0,10.0,-100.00,WNW,284,9.0,12.0,33,0.00,,,-99.99,,2013-01-17 19:03:00,
2013-01-17 12:12:00,36.0,10.0,-100.00,WNW,295,7.0,11.0,33,0.00,,,-99.99,,2013-01-17 19:12:00,
2013-01-17 12:22:00,38.0,12.0,-100.00,West,275,9.0,11.0,34,0.00,,,-99.99,,2013-01-17 19:22:00,
2013-01-17 12:33:00,39.0,11.0,-100.00,WNW,299,11.0,14.0,31,0.00,,,-99.99,,2013-01-17 19:33:00,
2013-01-17 12:53:00,39.0,12.0,-100.00,WNW,288,12.0,14.0,32,0.00,,,-99.99,,2013-01-17 19:53:00,
2013-01-17 13:03:00,39.0,11.0,-100.00,WNW,284,13.0,17.0,32,0.00,,,-99.99,,2013-01-17 20:03:00,
2013-01-17 13:12:00,40.0,12.0,-100.00,WNW,284,12.0,17.0,32,0.00,,,-99.99,,2013-01-17 20:12:00,
2013-01-17 13:23:00,40.0,11.0,-100.00,WNW,284,15.0,18.0,31,0.00,,,-99.99,,2013-01-17 20:23:00,
2013-01-17 13:33:00,40.0,12.0,-100.00,WNW,298,15.0,18.0,31,0.00,,,-99.99,,2013-01-17 20:33:00,
2013-01-17 15:42:00,40.0,12.0,-100.00,NW,326,6.0,9.0,31,0.00,,,-99.99,,2013-01-17 22:42:00,
2013-01-17 15:52:00,41.0,12.0,-100.00,NW,325,9.0,12.0,30,0.00,,,-99.99,,2013-01-17 22:52:00,
2013-01-17 16:03:00,41.0,11.0,-100.00,NW,309,9.0,11.0,29,0.00,,,-99.99,,2013-01-17 23:03:00,
2013-01-17 16:12:00,40.0,11.0,-100.00,WNW,301,13.0,17.0,29,0.00,,,-99.99,,2013-01-17 23:12:00,
2013-01-17 16:22:00,39.0,11.0,-100.00,WNW,301,15.0,19.0,31,0.00,,,-99.99,,2013-01-17 23:22:00,
2013-01-17 16:33:00,39.0,12.0,-100.00,WNW,301,14.0,18.0,32,0.00,,,-99.99,,2013-01-17 23:33:00,
2013-01-17 16:42:00,37.0,12.0,-100.00,NW,304,12.0,14.0,36,0.00,,,-99.99,,2013-01-17 23:42:00,
2013-01-17 16:52:00,36.0,12.0,-100.00,WNW,299,12.0,14.0,37,0.00,,,-99.99,,2013-01-17 23:52:00,
2013-01-17 17:02:00,34.0,12.0,-100.00,WNW,296,10.0,12.0,40,0.00,,,-99.99,,2013-01-18 00:02:00,
2013-01-17 17:12:00,33.0,13.0,-100.00,WNW,295,12.0,15.0,42,0.00,,,-99.99,,2013-01-18 00:12:00,
2013-01-17 17:23:00,31.0,12.0,-100.00,WNW,291,12.0,13.0,46,0.00,,,-99.99,,2013-01-18 00:23:00,
2013-01-17 17:32:00,30.0,12.0,-100.00,WNW,294,12.0,15.0,46,0.00,,,-99.99,,2013-01-18 00:32:00,
2013-01-17 17:42:00,29.0,12.0,-100.00,WNW,292,14.0,16.0,48,0.00,,,-99.99,,2013-01-18 00:42:00,
2013-01-17 17:52:00,29.0,12.0,-100.00,WNW,299,13.0,15.0,48,0.00,,,-99.99,,2013-01-18 00:52:00,
2013-01-17 18:03:00,29.0,12.0,-100.00,NW,304,14.0,16.0,49,0.00,,,-99.99,,2013-01-18 01:03:00,
2013-01-17 18:12:00,29.0,11.0,-100.00,NW,306,14.0,16.0,48,0.00,,,-99.99,,2013-01-18 01:12:00,
2013-01-17 18:22:00,28.0,12.0,-100.00,NW,306,12.0,14.0,50,0.00,,,-99.99,,2013-01-18 01:22:00,
2013-01-17 18:33:00,27.0,11.0,-100.00,NW,311,13.0,15.0,51,0.00,,,-99.99,,2013-01-18 01:33:00,
2013-01-17 18:42:00,27.0,11.0,-100.00,NW,311,12.0,14.0,51,0.00,,,-99.99,,2013-01-18 01:42:00,
2013-01-17 18:52:00,26.0,11.0,-100.00,NW,309,12.0,13.0,53,0.00,,,-99.99,,2013-01-18 01:52:00,
2013-01-17 19:02:00,25.0,11.0,-100.00,NW,312,12.0,14.0,55,0.00,,,-99.99,,2013-01-18 02:02:00,
2013-01-17 19:12:00,25.0,11.0,-100.00,NW,309,13.0,14.0,55,0.00,,,-99.99,,2013-01-18 02:12:00,
2013-01-17 19:22:00,25.0,11.0,-100.00,NW,309,12.0,14.0,56,0.00,,,-99.99,,2013-01-18 02:22:00,
2013-01-17 19:32:00,25.0,11.0,-100.00,NW,305,14.0,16.0,55,0.00,,,-99.99,,2013-01-18 02:32:00,
2013-01-17 19:42:00,25.0,11.0,-100.00,WNW,296,14.0,15.0,55,0.00,,,-99.99,,2013-01-18 02:42:00,
2013-01-17 19:52:00,25.0,11.0,-100.00,WNW,298,14.0,16.0,54,0.00,,,-99.99,,2013-01-18 02:52:00,
2013-01-17 20:02:00,26.0,11.0,-100.00,WNW,299,13.0,16.0,53,0.00,,,-99.99,,2013-01-18 03:02:00,
2013-01-17 20:12:00,25.0,11.0,-100.00,NW,308,13.0,14.0,54,0.00,,,-99.99,,2013-01-18 03:12:00,
2013-01-17 20:22:00,24.0,10.0,-100.00,NW,304,13.0,15.0,54,0.00,,,-99.99,,2013-01-18 03:22:00,
2013-01-17 20:33:00,25.0,10.0,-100.00,WNW,302,16.0,17.0,51,0.00,,,-99.99,,2013-01-18 03:33:00,
2013-01-17 20:42:00,26.0,9.0,-100.00,NW,308,14.0,17.0,50,0.00,,,-99.99,,2013-01-18 03:42:00,
2013-01-17 20:52:00,26.0,9.0,-100.00,NW,304,14.0,16.0,49,0.00,,,-99.99,,2013-01-18 03:52:00,
2013-01-17 21:02:00,25.0,9.0,-100.00,NW,304,14.0,16.0,50,0.00,,,-99.99,,2013-01-18 04:02:00,
2013-01-17 21:12:00,24.0,9.0,-100.00,WNW,301,14.0,17.0,51,0.00,,,-99.99,,2013-01-18 04:12:00,
2013-01-17 21:22:00,27.0,9.0,-100.00,NW,306,19.0,22.0,46,0.00,,,-99.99,,2013-01-18 04:22:00,
2013-01-17 21:32:00,26.0,9.0,-100.00,NW,305,18.0,21.0,46,0.00,,,-99.99,,2013-01-18 04:32:00,
2013-01-17 21:42:00,27.0,8.0,-100.00,NW,306,21.0,22.0,45,0.00,,,-99.99,,2013-01-18 04:42:00,
2013-01-17 21:52:00,27.0,8.0,-100.00,NW,306,22.0,24.0,42,0.00,,,-99.99,,2013-01-18 04:52:00,
2013-01-17 22:03:00,28.0,7.0,-100.00,NW,309,23.0,26.0,41,0.00,,,-99.99,,2013-01-18 05:03:00,
2013-01-17 22:12:00,27.0,7.0,-100.00,NW,309,24.0,26.0,41,0.00,,,-99.99,,2013-01-18 05:12:00,
2013-01-17 22:22:00,28.0,6.0,-100.00,NW,311,23.0,26.0,40,0.00,,,-99.99,,2013-01-18 05:22:00,
2013-01-17 22:33:00,28.0,6.0,-100.00,NW,309,24.0,27.0,38,0.00,,,-99.99,,2013-01-18 05:33:00,
2013-01-17 22:42:00,28.0,6.0,-100.00,NW,306,24.0,26.0,38,0.00,,,-99.99,,2013-01-18 05:42:00,
2013-01-17 22:52:00,29.0,6.0,-100.00,NW,306,25.0,27.0,37,0.00,,,-99.99,,2013-01-18 05:52:00,
2013-01-17 23:02:00,28.0,6.0,-100.00,NW,305,24.0,27.0,38,0.00,,,-99.99,,2013-01-18 06:02:00,
2013-01-17 23:12:00,28.0,6.0,-100.00,NW,305,23.0,27.0,38,0.00,,,-99.99,,2013-01-18 06:12:00,
2013-01-17 23:22:00,27.0,6.0,-100.00,WNW,299,22.0,25.0,39,0.00,,,-99.99,,2013-01-18 06:22:00,
2013-01-17 23:32:00,28.0,6.0,-100.00,WNW,298,22.0,26.0,38,0.00,,,-99.99,,2013-01-18 06:32:00,
2013-01-17 23:43:00,28.0,5.0,-100.00,WNW,296,23.0,27.0,37,0.00,,,-99.99,,2013-01-18 06:43:00,
2013-01-17 23:52:00,28.0,5.0,-100.00,WNW,296,24.0,28.0,38,0.00,,,-99.99,,2013-01-18 06:52:00,